Date,TemperatureHighF,TemperatureAvgF,TemperatureLowF,DewpointHighF,DewpointAvgF,DewpointLowF,HumidityHigh,HumidityAvg,HumidityLow,PressureMaxIn,PressureMinIn,WindSpeedMaxMPH,WindSpeedAvgMPH,GustSpeedMaxMPH,PrecipitationSumIn
2013-11-1,88.0,74.2,51.3,43.3,41.4,38.5,71,35,20,30.01,29.85,16,2,18,0.00
2013-11-2,85.5,64.6,47.6,46.2,39.8,34.3,72,43,21,29.90,29.76,8,0,18,0.00
2013-11-3,73.2,55.9,41.1,56.7,46.7,36.6,90,73,49,29.84,29.73,5,0,12,0.00
2013-11-4,71.1,59.0,46.2,54.8,50.2,42.5,91,74,47,29.87,29.70,7,0,12,0.00
2013-11-5,75.6,60.1,41.1,42.5,32.1,23.2,89,42,19,30.07,29.88,16,2,20,0.00
2013-11-6,84.7,68.7,52.8,36.5,29.8,22.9,35,24,17,30.11,30.02,13,1,19,0.00
2013-11-7,88.2,67.8,51.0,43.1,35.2,27.1,52,32,17,30.03,29.90,7,0,14,0.00
2013-11-8,83.0,59.3,43.3,54.8,39.9,30.2,77,52,21,29.94,29.83,5,0,10,0.00
2013-11-9,80.1,58.2,43.5,57.0,44.8,36.1,88,65,28,29.99,29.89,4,0,7,0.00
2013-11-10,85.7,57.4,42.1,50.7,40.1,32.5,88,58,17,30.04,29.93,7,0,16,0.00
2013-11-11,80.1,58.8,41.2,51.9,42.2,34.9,82,59,23,30.05,29.94,9,0,11,0.00
2013-11-12,80.9,61.0,47.7,59.0,46.7,40.1,83,61,31,30.08,29.98,1,0,6,0.00
2013-11-13,94.0,70.8,50.5,49.0,41.8,38.8,66,39,17,30.00,29.81,14,1,18,0.00
2013-11-14,92.7,70.2,53.5,54.3,44.8,36.5,85,46,18,29.85,29.65,6,0,11,0.00
2013-11-15,72.0,56.3,44.1,56.5,49.2,40.2,90,78,54,29.68,29.57,11,0,13,0.00
2013-11-16,69.9,58.0,52.5,55.7,52.6,45.8,93,83,56,29.84,29.64,7,0,12,0.00
2013-11-17,70.9,58.0,47.4,53.8,50.4,43.1,95,77,47,30.01,29.84,6,0,11,0.00
2013-11-18,69.1,54.2,42.2,54.0,47.6,39.8,93,79,57,30.07,29.96,5,0,8,0.00
2013-11-19,67.9,55.9,47.6,54.8,50.1,45.5,93,82,58,30.01,29.85,2,0,8,0.00
2013-11-20,65.8,58.3,50.8,56.1,52.8,47.4,93,83,64,29.88,29.77,2,0,5,0.00
2013-11-21,66.6,58.5,52.8,60.2,55.1,45.8,97,89,71,29.81,29.72,6,0,11,0.01
2013-11-22,64.8,56.8,53.3,45.4,41.4,39.2,70,57,47,29.91,29.78,19,2,20,0.00
2013-11-23,66.9,56.9,52.2,44.2,41.5,39.7,64,57,42,30.02,29.89,11,1,18,0.00
2013-11-24,70.1,57.2,44.9,47.5,42.2,39.8,82,59,35,30.12,30.00,12,1,17,0.00
2013-11-25,79.2,54.9,40.2,49.2,41.5,37.2,90,65,27,30.15,30.04,6,0,13,0.00
2013-11-26,79.0,63.2,46.4,43.6,40.5,38.4,79,47,24,30.09,29.95,10,1,17,0.00
2013-11-27,76.0,62.4,49.2,45.2,42.0,35.7,77,49,30,29.96,29.77,10,0,17,0.00
2013-11-28,70.4,57.9,47.6,48.0,43.5,39.9,80,61,35,29.96,29.80,8,0,10,0.00
2013-11-29,72.3,60.4,52.3,50.0,46.0,41.6,84,60,41,30.09,29.95,13,1,20,0.03
2013-11-30,78.6,61.2,47.9,45.3,41.3,38.2,77,51,27,30.10,29.97,14,1,16,0.00